User: anonymous   Login
Location: Caltech
(34.1382°N, 118.1253°W)
Time: 03:33:21
(UTC-07:00)
Language:

Gbstr 26 Del rocket - Orbit

View from above orbital plane
View from above orbital plane
View from above satellite
View from above satellite

Ground track
Ground track

The orbit data is extracted from the following two-line orbital elements,

1 25876U 99041E   17113.67085560 +.00000379 +00000-0 +10477-3 0  9992
2 25876 051.7661 171.9369 0531548 229.1211 126.2502 14.04041544906950
Epoch (UTC): 23 April 2017 16:06:01
Eccentricity: 0.0531548
inclination: 51.7661°
perigee height: 494 km
apogee height: 1265 km
right ascension of ascending node: 171.9369°
argument of perigee: 229.1211°
revolutions per day: 14.04041544
mean anomaly at epoch: 126.2502°
orbit number at epoch: 90695

The dashed part of the orbit path shows where the satellite is in the earth's shadow,  

DLR